| time (UTC) | temp F | wind direction | speed MPH | gust MPH | rain 1hr in | rain 24hr in | rain mn in | humidity % | barometer mb |
| 20260906010016 | 62 | 346 | 1.0 | 5.0 | 0.01 | 0.14 | 0.14 | 92 | 1009.5 |
| 20260906004510 | 62 | 30 | 0.0 | 1.0 | 0.01 | 0.14 | 0.14 | 92 | 1009.1 |
| 20260906003009 | 62 | 30 | 0.0 | 1.0 | 0.01 | 0.14 | 0.14 | 92 | 1009.0 |
| 20260906001509 | 63 | 30 | 0.0 | 2.0 | 0.00 | 0.13 | 0.13 | 91 | 1009.1 |
| 20260906000008 | 63 | 30 | 0.0 | 1.0 | 0.04 | 0.13 | 0.13 | 91 | 1008.9 |
| 20260905234507 | 63 | 30 | 0.0 | 4.0 | 0.13 | 0.13 | 0.13 | 90 | 1008.7 |
| 20260905233006 | 63 | 46 | 0.0 | 0.0 | 0.13 | 0.13 | 0.13 | 89 | 1008.5 |
| 20260905231506 | 64 | 29 | 0.0 | 2.0 | 0.13 | 0.13 | 0.13 | 88 | 1008.5 |
| 20260905230005 | 65 | 29 | 2.0 | 6.0 | 0.07 | 0.07 | 0.07 | 85 | 1008.5 |
| 20260905224507 | 65 | 144 | 1.0 | 5.0 | 0.00 | 0.00 | 0.00 | 84 | 1008.1 |
| 20260905223004 | 65 | 138 | 0.0 | 4.0 | 0.00 | 0.00 | 0.00 | 83 | 1008.0 |
| 20260905221505 | 65 | 117 | 0.0 | 5.0 | 0.00 | 0.00 | 0.00 | 83 | 1008.0 |
| 20260905220003 | 66 | 143 | 1.0 | 6.0 | 0.00 | 0.00 | 0.00 | 82 | 1008.0 |
| 20260905214501 | 66 | 117 | 1.0 | 8.0 | 0.00 | 0.00 | 0.00 | 80 | 1007.8 |
| 20260905213001 | 67 | 96 | 0.0 | 6.0 | 0.00 | 0.00 | 0.00 | 80 | 1007.5 |
| 20260905211601 | 68 | 125 | 0.0 | 9.0 | 0.00 | 0.00 | 0.00 | 78 | 1007.3 |
| 20260905210105 | 69 | 202 | 1.0 | 10.0 | 0.00 | 0.00 | 0.00 | 76 | 1007.1 |
| 20260905204558 | 71 | 155 | 4.0 | 9.0 | 0.00 | 0.00 | 0.00 | 71 | 1006.9 |
| 20260905203100 | 73 | 227 | 4.0 | 9.0 | 0.00 | 0.00 | 0.00 | 65 | 1006.7 |
| 20260905201557 | 73 | 302 | 6.0 | 9.0 | 0.00 | 0.00 | 0.00 | 64 | 1006.5 |
| 20260905200058 | 72 | 32 | 6.0 | 11.0 | 0.00 | 0.00 | 0.00 | 64 | 1006.4 |
| 20260905194555 | 72 | 329 | 3.0 | 7.0 | 0.00 | 0.00 | 0.00 | 66 | 1006.4 |
| 20260905193055 | 72 | 338 | 2.0 | 6.0 | 0.00 | 0.00 | 0.00 | 69 | 1006.4 |
| 20260905191602 | 73 | 327 | 3.0 | 8.0 | 0.00 | 0.00 | 0.00 | 65 | 1006.3 |
| 20260905190057 | 74 | 347 | 0.0 | 7.0 | 0.00 | 0.00 | 0.00 | 63 | 1006.3 |
| 20260905184600 | 74 | 10 | 4.0 | 7.0 | 0.00 | 0.00 | 0.00 | 62 | 1006.3 |
| 20260905183052 | 73 | 5 | 4.0 | 9.0 | 0.00 | 0.00 | 0.00 | 65 | 1006.3 |
| 20260905181552 | 74 | 350 | 6.0 | 14.0 | 0.00 | 0.00 | 0.00 | 63 | 1006.3 |
| 20260905180100 | 73 | 30 | 2.0 | 7.0 | 0.00 | 0.00 | 0.00 | 65 | 1006.3 |
| 20260905174550 | 74 | 281 | 4.0 | 11.0 | 0.00 | 0.00 | 0.00 | 66 | 1006.3 |
| 20260905173106 | 74 | 304 | 3.0 | 10.0 | 0.00 | 0.00 | 0.00 | 65 | 1006.3 |
| 20260905171547 | 74 | 294 | 3.0 | 7.0 | 0.00 | 0.00 | 0.00 | 69 | 1006.2 |
| 20260905170053 | 72 | 18 | 3.0 | 10.0 | 0.00 | 0.00 | 0.00 | 69 | 1006.3 |
| 20260905164537 | 71 | 44 | 4.0 | 7.0 | 0.00 | 0.00 | 0.00 | 74 | 1006.3 |
| 20260905163036 | 70 | 302 | 3.0 | 8.0 | 0.00 | 0.00 | 0.00 | 79 | 1006.3 |
| 20260905161546 | 68 | 327 | 2.0 | 5.0 | 0.00 | 0.00 | 0.00 | 81 | 1006.3 |
| 20260905160035 | 68 | 328 | 3.0 | 8.0 | 0.00 | 0.00 | 0.00 | 79 | 1006.5 |
| 20260905154533 | 70 | 306 | 4.0 | 8.0 | 0.00 | 0.00 | 0.00 | 74 | 1006.4 |
| 20260905153033 | 71 | 348 | 4.0 | 8.0 | 0.00 | 0.00 | 0.00 | 72 | 1006.3 |
| 20260905151532 | 70 | 16 | 3.0 | 7.0 | 0.00 | 0.00 | 0.00 | 74 | 1006.3 |
| 20260905150025 | 69 | 10 | 0.0 | 7.0 | 0.00 | 0.00 | 0.00 | 77 | 1006.3 |
| 20260905144526 | 68 | 348 | 5.0 | 9.0 | 0.00 | 0.00 | 0.00 | 77 | 1006.3 |
| 20260905143023 | 68 | 349 | 4.0 | 10.0 | 0.00 | 0.00 | 0.00 | 79 | 1006.4 |
| 20260905141520 | 67 | 325 | 2.0 | 8.0 | 0.00 | 0.00 | 0.00 | 82 | 1006.4 |
| 20260905140016 | 67 | 321 | 4.0 | 8.0 | 0.00 | 0.00 | 0.00 | 83 | 1006.4 |
| 20260905134512 | 65 | 326 | 5.0 | 9.0 | 0.00 | 0.00 | 0.00 | 84 | 1006.3 |
| 20260905133009 | 65 | 315 | 4.0 | 10.0 | 0.00 | 0.00 | 0.00 | 86 | 1006.2 |
| 20260905131508 | 64 | 340 | 5.0 | 10.0 | 0.00 | 0.00 | 0.00 | 87 | 1006.0 |
| 20260905130004 | 63 | 315 | 3.0 | 7.0 | 0.00 | 0.00 | 0.00 | 89 | 1005.9 |
| 20260905124502 | 62 | 278 | 0.0 | 1.0 | 0.00 | 0.00 | 0.00 | 90 | 1006.0 |
| 20260905123108 | 61 | 287 | 0.0 | 2.0 | 0.00 | 0.00 | 0.00 | 90 | 1005.8 |
| 20260905121558 | 61 | 287 | 0.0 | 1.0 | 0.00 | 0.00 | 0.00 | 91 | 1005.7 |
| 20260905120100 | 61 | 287 | 0.0 | 0.0 | 0.00 | 0.00 | 0.00 | 92 | 1005.7 |
| 20260905114601 | 60 | 287 | 0.0 | 4.0 | 0.00 | 0.00 | 0.00 | 92 | 1005.5 |
| 20260905113054 | 60 | 287 | 1.0 | 6.0 | 0.00 | 0.00 | 0.00 | 92 | 1005.5 |
| 20260905111551 | 59 | 248 | 0.0 | 4.0 | 0.00 | 0.00 | 0.00 | 92 | 1005.4 |
| 20260905110048 | 59 | 245 | 2.0 | 5.0 | 0.00 | 0.00 | 0.00 | 91 | 1005.4 |
| 20260905104547 | 59 | 280 | 0.0 | 4.0 | 0.00 | 0.00 | 0.00 | 91 | 1005.3 |
| 20260905103045 | 59 | 280 | 0.0 | 4.0 | 0.00 | 0.00 | 0.00 | 91 | 1005.2 |
| 20260905101556 | 59 | 299 | 0.0 | 2.0 | 0.00 | 0.00 | 0.00 | 91 | 1005.2 |
| 20260905100114 | 59 | 280 | 0.0 | 6.0 | 0.00 | 0.00 | 0.00 | 90 | 1005.2 |
| 20260905094548 | 59 | 323 | 0.0 | 4.0 | 0.00 | 0.01 | 0.00 | 89 | 1004.8 |
| 20260905093039 | 60 | 325 | 0.0 | 2.0 | 0.00 | 0.01 | 0.00 | 89 | 1004.8 |
| 20260905091553 | 60 | 342 | 0.0 | 6.0 | 0.00 | 0.01 | 0.00 | 89 | 1004.7 |
| 20260905090037 | 60 | 315 | 0.0 | 7.0 | 0.00 | 0.01 | 0.00 | 88 | 1004.7 |
| 20260905084542 | 60 | 269 | 0.0 | 4.0 | 0.00 | 0.01 | 0.00 | 88 | 1004.7 |
| 20260905083049 | 61 | 317 | 0.0 | 5.0 | 0.00 | 0.01 | 0.00 | 88 | 1004.7 |
| 20260905081533 | 61 | 284 | 1.0 | 6.0 | 0.00 | 0.01 | 0.00 | 87 | 1004.6 |
| 20260905080035 | 61 | 317 | 2.0 | 8.0 | 0.00 | 0.01 | 0.00 | 87 | 1004.7 |
| 20260905074532 | 61 | 272 | 0.0 | 5.0 | 0.00 | 0.01 | 0.00 | 86 | 1004.7 |
| 20260905073031 | 61 | 261 | 4.0 | 8.0 | 0.00 | 0.01 | 0.00 | 86 | 1004.7 |
| 20260905071530 | 62 | 273 | 0.0 | 6.0 | 0.00 | 0.01 | 0.00 | 86 | 1004.7 |
| 20260905070029 | 61 | 306 | 1.0 | 7.0 | 0.00 | 0.01 | 0.00 | 86 | 1004.8 |
| 20260905064528 | 61 | 263 | 2.0 | 6.0 | 0.00 | 0.01 | 0.00 | 86 | 1005.2 |
| 20260905063027 | 62 | 265 | 1.0 | 6.0 | 0.00 | 0.01 | 0.00 | 86 | 1005.1 |
| 20260905061528 | 62 | 267 | 2.0 | 6.0 | 0.00 | 0.01 | 0.00 | 85 | 1005.1 |
| 20260905060037 | 62 | 327 | 1.0 | 7.0 | 0.00 | 0.01 | 0.00 | 85 | 1005.2 |
| 20260905054556 | 62 | 325 | 1.0 | 9.0 | 0.00 | 0.01 | 0.00 | 85 | 1005.5 |
| 20260905053024 | 62 | 301 | 1.0 | 7.0 | 0.00 | 0.01 | 0.00 | 85 | 1005.3 |
| 20260905051524 | 62 | 270 | 3.0 | 6.0 | 0.00 | 0.01 | 0.00 | 85 | 1005.6 |
| 20260905050021 | 62 | 276 | 1.0 | 5.0 | 0.00 | 0.01 | 0.00 | 84 | 1005.6 |
| 20260905044521 | 62 | 269 | 1.0 | 9.0 | 0.00 | 0.01 | 0.00 | 84 | 1005.7 |
| 20260905043019 | 62 | 273 | 0.0 | 4.0 | 0.00 | 0.01 | 0.00 | 83 | 1005.4 |
| 20260905041520 | 63 | 272 | 0.0 | 0.0 | 0.00 | 0.01 | 0.00 | 83 | 1005.4 |
| 20260905040015 | 63 | 272 | 0.0 | 4.0 | 0.00 | 0.01 | 0.01 | 81 | 1005.5 |
| 20260905034516 | 64 | 294 | 0.0 | 4.0 | 0.00 | 0.01 | 0.01 | 80 | 1005.2 |
| 20260905033017 | 64 | 294 | 0.0 | 4.0 | 0.00 | 0.01 | 0.01 | 79 | 1005.2 |
| 20260905031514 | 65 | 293 | 0.0 | 1.0 | 0.00 | 0.01 | 0.01 | 79 | 1005.4 |
| 20260905030014 | 65 | 293 | 0.0 | 4.0 | 0.00 | 0.01 | 0.01 | 78 | 1005.7 |
| 20260905024514 | 65 | 278 | 2.0 | 6.0 | 0.00 | 0.01 | 0.01 | 77 | 1005.7 |
| 20260905023012 | 65 | 302 | 0.0 | 6.0 | 0.00 | 0.01 | 0.01 | 77 | 1005.7 |
| 20260905021512 | 66 | 293 | 1.0 | 8.0 | 0.00 | 0.01 | 0.01 | 76 | 1005.7 |
| 20260905020013 | 66 | 336 | 3.0 | 8.0 | 0.00 | 0.01 | 0.01 | 76 | 1005.9 |
| 20260905014510 | 66 | 308 | 3.0 | 8.0 | 0.00 | 0.01 | 0.01 | 76 | 1005.9 |
| 20260905013014 | 66 | 300 | 0.0 | 4.0 | 0.00 | 0.01 | 0.01 | 75 | 1006.1 |
| 20260905011513 | 67 | 259 | 0.0 | 5.0 | 0.00 | 0.01 | 0.01 | 74 | 1006.1 |